Regional Weather Roundup
Issued by NWS Albany, NY

Home | Current Version | Previous Version | Text Only | Print | Product List | Glossary On
Versions: 1 2 3 4 5 6 7 8 9 10 11 12 13 14 15 16 17 18 19 20 21 22 23 24 25 26 27 28 29 30 31 32 33 34 35 36 37 38 39 40 41 42 43 44 45 46 47 48 49 50
938
ASUS41 KALY 111110
RWRALY

NEW YORK STATE HOURLY WEATHER ROUNDUP
NATIONAL WEATHER SERVICE ALBANY NY
600 AM EST THU FEB 11 2016

NOTE: "FAIR" INDICATES FEW OR NO CLOUDS BELOW 12,000 FEET WITH NO
SIGNIFICANT WEATHER AND/OR NO OBSTRUCTIONS TO VISIBILITY.

NYZ032-033-038>043-046>054-057>066-NYZ062>081-111200-
EAST


CITY           SKY/WX    TMP DP  RH WIND       PRES   REMARKS
ALBANY         FLURRIES  21  10  62 W13G28    29.75R WCI   9
GLENS FALLS    CLOUDY    22   4  46 W14       29.71R WCI   9
POUGHKEEPSIE   MOCLDY    23   5  46 W17G23    29.79R WCI   9
NEWBURGH       PTCLDY    19   9  63 W17G29    29.79R WCI   4
MONTGOMERY     PTCLDY    20   6  55 W8        29.79R WCI  10
WHITE PLAINS   PTCLDY    21   4  47 W20G32    29.77R WCI   6
ISLIP          MOCLDY    25   9  50 W12       29.76R WCI  14
NEW YORK CITY  MOCLDY    25   4  40 NW22G29   29.83R WCI  10
CENTRAL PARK   MOCLDY    24   0  35 W9        29.85R WCI  14
$$

NYZ005>009-017-018-044>046-055-056-111200-
CENTRAL


CITY           SKY/WX    TMP DP  RH WIND       PRES   REMARKS
FULTON         HVY SNOW  17  12  80 W12G24    29.79R VSB 1/4 WCI   4
SYRACUSE       FLURRIES  14   7  73 W16G25    29.78S WCI  -2
ROME           LGT SNOW  14  10  84 W14       29.78S FOG     WCI  -1
ELMIRA         PTCLDY    13   5  70 SW8       29.81R WCI   2
BINGHAMTON     LGT SNOW  10   3  73 W10       29.72R WCI  -4
MONTICELLO     CLEAR     12   1  62 W12       29.73R WCI  -2
$$

NYZ026>034-041>043-111200-
NORTH


CITY           SKY/WX    TMP DP  RH WIND       PRES   REMARKS
WATERTOWN      LGT SNOW  10   6  84 N7        29.78R FOG     WCI  -1
FORT DRUM      NOT AVBL
MASSENA        LGT SNOW   7   1  76 W12       29.78R WCI  -8
SARANAC LAKE   LGT SNOW  10   7  87 W6        29.58R FOG     WCI   0
PLATTSBURGH    CLOUDY    17   9  70 VRB3      29.69R
$$

NYZ001>004-010>016-019>021-111200-
WEST


CITY           SKY/WX    TMP DP  RH WIND       PRES   REMARKS
NIAGARA FALLS  CLOUDY    12   0  58 W22G30    29.91R WCI  -7
BUFFALO        MOCLDY     9  -1  64 W16       29.90R WCI  -8
DUNKIRK        MOCLDY    13   3  64 NW14G30   29.94R WCI  -2
JAMESTOWN      MOCLDY     9   1  72 NW15G22   29.81R WCI  -8
WELLSVILLE     LGT SNOW   9   3  77 NW20G28   29.75R VSB 1   WCI -10
ROCHESTER      LGT SNOW  13   7  77 W15G23    29.85R WCI  -3
PENN YAN       CLEAR     14   1  56 W14G22    29.80R WCI  -1
$$

             KEY
       WCI = WIND CHILL INDEX
       VSB = VISIBILITY
       HX  = HEAT INDEX
$$




USA.gov is the U.S. government's official web portal to all federal, state and local government web resources and services.